Location: Emporia
(38.4040°N, 96.1810°W)
Time: 19:29:58
(UTC-05:00)

Amateur Radio Satellites - All Passes

Search period start: 20 October 2014 18:59
Search period end: 21 October 2014 18:59
Location: Emporia, 38.4040°N, 96.1810°W

Satellite Date Start Highest point End Downlink Frequencies (MHz)
Time Altitude Azimuth
SO-67 20 Oct 19:35:31 19:38:54 60° 76° (ENE) 19:42:18 435.3500 MHz FM
STRAND 1 20 Oct 20:13:05 20:18:15 72° 102° (ESE) 20:23:22 ?
OPAL 20 Oct 20:17:08 20:19:34 14° 301° (WNW) 20:22:01 ?
ISS 20 Oct 20:17:36 20:19:52 17° 23° (NNE) 20:22:08 145.800 FM
HO-68 20 Oct 20:23:13 20:29:08 29° 62° (ENE) 20:35:05 435.675 MHz FM
KITSAT 1 20 Oct 20:24:38 20:28:16 13° 28° (NNE) 20:31:54 435.175 FM
AO-40 20 Oct 20:34:38 23:08:18 36° 202° (SSW) 04:12:38 Beacon 2401.320
UKube-1 20 Oct 21:06:08 21:08:26 14° 64° (ENE) 21:10:45 145.840 MHz, 145.915 MHz
FUNcube-1 20 Oct 21:38:26 21:40:14 12° 64° (ENE) 21:42:02 145.950 - 145.970 MHz USB
Oscar 11 20 Oct 21:49:56 21:53:53 36° 72° (ENE) 21:57:51 145.825 FM, Beacon 2401.500 USB
ISS 20 Oct 21:53:36 21:56:57 84° 219° (SW) 22:00:16 145.800 FM
STRAND 1 20 Oct 21:54:16 21:56:48 14° 299° (WNW) 21:59:19 ?
HO-68 20 Oct 22:09:31 22:16:27 53° 259° (W) 22:23:27 435.675 MHz FM
KITSAT 1 20 Oct 22:18:13 22:25:59 48° 53° (NE) 22:33:41 435.175 FM
ZACube-1 20 Oct 22:25:57 22:30:13 39° 72° (ENE) 22:34:29 437.345 MHz
UKube-1 20 Oct 22:39:58 22:44:11 50° 260° (W) 22:48:26 145.840 MHz, 145.915 MHz
RS-15 20 Oct 22:58:45 23:09:15 52° 111° (ESE) 23:19:36 29.354 - 29.394 USB, Beacon 29.352 USB
FUNcube-1 20 Oct 23:11:28 23:16:03 67° 259° (W) 23:20:37 145.950 - 145.970 MHz USB
SO-50 20 Oct 23:12:49 23:17:29 45° 54° (NE) 23:22:10 436.795 FM
Oscar 11 20 Oct 23:27:11 23:30:10 18° 266° (W) 23:33:09 145.825 FM, Beacon 2401.500 USB
ZACube-1 21 Oct 00:03:28 00:06:43 19° 267° (W) 00:09:58 437.345 MHz
KITSAT 1 21 Oct 00:13:56 00:21:11 38° 252° (WSW) 00:28:24 435.175 FM
MaSat-1 21 Oct 00:42:25 00:46:12 30° 109° (ESE) 00:49:44 437.345 MHz
SO-50 21 Oct 00:54:08 00:57:44 21° 250° (WSW) 01:01:21 436.795 FM
UOSAT-12 21 Oct 01:00:47 01:05:22 48° 54° (NE) 01:09:51 437.025 FM, 437.400 FM
RS-15 21 Oct 01:11:18 01:21:41 46° 313° (NW) 01:32:06 29.354 - 29.394 USB, Beacon 29.352 USB
JAS-1B 21 Oct 01:32:19 01:34:51 12° 92° (E) 01:37:32 435.800 - 435.900 CW/SSB
AO-Echo 21 Oct 02:02:58 02:03:55 10° 89° (E) 02:04:53 ?
MaSat-1 21 Oct 02:18:36 02:21:57 22° 301° (WNW) 02:25:06 437.345 MHz
Oscar 19 21 Oct 02:23:50 02:28:28 34° 97° (E) 02:33:05 437.125 CW, 437.150 USB
AO-27 21 Oct 02:31:47 02:35:00 16° 92° (E) 02:38:12 436.795 MHz FM
UOSAT-12 21 Oct 02:41:58 02:45:07 18° 251° (WSW) 02:48:13 437.025 FM, 437.400 FM
Oscar 16 21 Oct 03:08:30 03:13:39 84° 284° (WNW) 03:18:45 437.025 USB, Beacon 2401.1428
JAS-1B 21 Oct 03:19:23 03:25:55 85° 104° (ESE) 03:33:44 435.800 - 435.900 CW/SSB
Uribyol 2 21 Oct 03:20:19 03:25:25 52° 100° (E) 03:30:27 436.500 FM
Gurwin Techsat 1B 21 Oct 03:20:20 03:24:40 25° 95° (E) 03:28:59 435.225 FM
ITAMSAT 1 21 Oct 03:25:12 03:30:20 54° 101° (E) 03:35:25 435.822 SSB
RS-15 21 Oct 03:31:05 03:37:56 18° 345° (NNW) 03:44:52 29.354 - 29.394 USB, Beacon 29.352 USB
TMSAT-1 21 Oct 03:34:25 03:38:44 25° 95° (E) 03:43:02 436.925 FM
AO-Echo 21 Oct 03:37:55 03:43:15 85° 284° (WNW) 03:48:34 ?
Oscar 19 21 Oct 04:03:26 04:07:39 26° 293° (WNW) 04:11:50 437.125 CW, 437.150 USB
AO-27 21 Oct 04:09:43 04:14:50 56° 288° (WNW) 04:19:55 436.795 MHz FM
OPAL 21 Oct 04:14:18 04:16:37 13° 59° (ENE) 04:18:56 ?
AO-7 21 Oct 04:35:34 04:42:09 25° 95° (E) 04:48:41 29.400 - 29.500 MHz
Sapphire 21 Oct 04:42:21 04:47:03 31° 109° (ESE) 04:51:46 437.095 MHz 1200 baud AX-25 AFSK
Gurwin Techsat 1B 21 Oct 04:59:49 05:04:42 38° 290° (WNW) 05:09:33 435.225 FM
Uribyol 2 21 Oct 05:00:53 05:04:27 19° 296° (WNW) 05:08:00 436.500 FM
PCSat 21 Oct 05:04:42 05:09:57 55° 113° (ESE) 05:15:14 145.825 MHz
ITAMSAT 1 21 Oct 05:05:53 05:09:22 18° 297° (WNW) 05:12:50 435.822 SSB
JAS-1B 21 Oct 05:12:17 05:16:00 16° 299° (WNW) 05:20:01 435.800 - 435.900 CW/SSB
TMSAT-1 21 Oct 05:13:51 05:18:43 38° 290° (WNW) 05:23:33 436.925 FM
Uosat F 21 Oct 05:19:27 05:24:05 36° 98° (E) 05:28:41 435.120 FM
AO-Echo 21 Oct 05:19:59 05:21:10 11° 300° (WNW) 05:22:21 ?
RS-15 21 Oct 05:48:46 05:56:26 20° 22° (NNE) 06:04:13 29.354 - 29.394 USB, Beacon 29.352 USB
OPAL 21 Oct 05:49:39 05:54:50 78° 255° (WSW) 05:59:59 ?
STRAND 1 21 Oct 05:53:23 05:54:14 10° 59° (ENE) 05:55:04 ?
Hamsat 21 Oct 06:04:34 06:06:00 12° 91° (E) 06:07:27 145.90 MHz
JAS-2 21 Oct 06:06:58 06:13:56 35° 95° (E) 06:20:56 435.800 - 435.900 CW/SSB, 435.910 FM
Sapphire 21 Oct 06:25:27 06:30:22 35° 306° (NW) 06:35:19 437.095 MHz 1200 baud AX-25 AFSK
AO-7 21 Oct 06:27:13 06:35:25 66° 292° (WNW) 06:43:38 29.400 - 29.500 MHz
PCSat 21 Oct 06:49:33 06:53:42 22° 311° (NW) 06:57:52 145.825 MHz
Uosat F 21 Oct 06:58:35 07:02:39 25° 294° (WNW) 07:06:43 435.120 FM
STRAND 1 21 Oct 07:27:28 07:32:35 87° 76° (ENE) 07:37:46 ?
Hamsat 21 Oct 07:38:10 07:42:14 51° 286° (WNW) 07:46:18 145.90 MHz
JAS-2 21 Oct 07:51:40 07:58:58 49° 291° (WNW) 08:06:24 435.800 - 435.900 CW/SSB, 435.910 FM
RS-15 21 Oct 08:01:05 08:12:01 56° 52° (NE) 08:23:23 29.354 - 29.394 USB, Beacon 29.352 USB
AO-7 21 Oct 08:22:49 08:26:39 14° 312° (NW) 08:30:29 29.400 - 29.500 MHz
SO-67 21 Oct 08:32:59 08:36:27 87° 280° (W) 08:39:53 435.3500 MHz FM
Saudisat 1A 21 Oct 08:40:31 08:44:32 37° 115° (ESE) 08:48:35 436.775 MHz
HO-68 21 Oct 09:39:01 09:45:23 33° 97° (E) 09:51:42 435.675 MHz FM
PANSAT 21 Oct 10:04:23 10:06:26 14° 168° (SSE) 10:08:29 not established
RS-15 21 Oct 10:13:52 10:24:04 42° 252° (WSW) 10:34:42 29.354 - 29.394 USB, Beacon 29.352 USB
Saudisat 1A 21 Oct 10:20:41 10:24:12 23° 312° (NW) 10:27:44 436.775 MHz
UKube-1 21 Oct 10:29:50 10:33:40 29° 97° (E) 10:37:28 145.840 MHz, 145.915 MHz
MaSat-1 21 Oct 10:30:49 10:33:06 24° 59° (ENE) 10:35:13 437.345 MHz
FUNcube-1 21 Oct 11:02:52 11:06:25 25° 95° (E) 11:09:54 145.950 - 145.970 MHz USB
Oscar 11 21 Oct 11:14:36 11:18:56 89° 282° (WNW) 11:23:14 145.825 FM, Beacon 2401.500 USB
HO-68 21 Oct 11:26:24 11:33:09 45° 294° (WNW) 11:39:52 435.675 MHz FM
PANSAT 21 Oct 11:43:15 11:45:57 18° 181° (S) 11:48:39 not established
ZACube-1 21 Oct 11:52:50 11:57:09 81° 284° (WNW) 12:01:20 437.345 MHz
UKube-1 21 Oct 12:06:15 12:09:41 23° 292° (WNW) 12:13:06 145.840 MHz, 145.915 MHz
FUNcube-1 21 Oct 12:39:14 12:42:42 24° 291° (WNW) 12:46:06 145.950 - 145.970 MHz USB
KITSAT 1 21 Oct 12:45:04 12:52:21 39° 108° (ESE) 12:59:38 435.175 FM
Oscar 16 21 Oct 12:47:37 12:50:20 15° 62° (ENE) 12:53:03 437.025 USB, Beacon 2401.1428
AO-Echo 21 Oct 13:14:36 13:16:16 12° 60° (ENE) 13:17:56 ?
PANSAT 21 Oct 13:23:38 13:25:28 13° 193° (SSW) 13:27:17 not established
SO-50 21 Oct 13:27:42 13:30:50 19° 110° (ESE) 13:34:02 436.795 FM
Sapphire 21 Oct 13:31:48 13:35:52 21° 49° (NE) 13:39:54 437.095 MHz 1200 baud AX-25 AFSK
Oscar 19 21 Oct 13:39:11 13:44:02 43° 71° (ENE) 13:48:53 437.125 CW, 437.150 USB
AO-27 21 Oct 13:48:22 13:52:20 23° 65° (ENE) 13:56:19 436.795 MHz FM
PCSat 21 Oct 13:54:18 13:59:10 33° 54° (NE) 14:04:01 145.825 MHz
JAS-1B 21 Oct 14:04:27 14:10:33 61° 73° (ENE) 14:16:09 435.800 - 435.900 CW/SSB
Oscar 16 21 Oct 14:23:56 14:29:05 68° 258° (WSW) 14:34:15 437.025 USB, Beacon 2401.1428
Oscar 10/S400 21 Oct 14:33:41 14:52:06 43° 154° (SSE) 15:15:34 145.825 - 145.975 CW/USB, Beacon 145.810 USB
ISS 21 Oct 14:34:30 14:37:48 74° 139° (SE) 14:41:09 145.800 FM
Uribyol 2 21 Oct 14:36:37 14:41:46 67° 74° (ENE) 14:46:58 436.500 FM
KITSAT 1 21 Oct 14:39:51 14:47:33 47° 307° (NW) 14:55:19 435.175 FM
Gurwin Techsat 1B 21 Oct 14:39:54 14:44:39 35° 69° (ENE) 14:49:25 435.225 FM
ITAMSAT 1 21 Oct 14:41:39 14:46:49 71° 74° (ENE) 14:52:02 435.822 SSB
AO-Echo 21 Oct 14:49:28 14:54:17 78° 258° (WSW) 14:59:17 ?
TMSAT-1 21 Oct 14:53:38 14:58:22 34° 69° (ENE) 15:03:06 436.925 FM
SO-50 21 Oct 15:06:46 15:11:02 42° 307° (NW) 15:15:26 436.795 FM
UOSAT-12 21 Oct 15:11:37 15:14:58 20° 110° (ESE) 15:18:21 437.025 FM, 437.400 FM
Sapphire 21 Oct 15:14:20 15:19:40 59° 247° (WSW) 15:24:58 437.095 MHz 1200 baud AX-25 AFSK
Oscar 19 21 Oct 15:19:43 15:23:32 21° 266° (W) 15:27:21 437.125 CW, 437.150 USB
AO-27 21 Oct 15:26:38 15:31:32 42° 261° (W) 15:36:30 436.795 MHz FM
AO-7 21 Oct 15:33:10 15:40:11 32° 59° (ENE) 15:47:12 29.400 - 29.500 MHz
PCSat 21 Oct 15:37:43 15:42:32 33° 251° (WSW) 15:47:19 145.825 MHz
JAS-1B 21 Oct 15:58:01 16:01:35 16° 267° (W) 16:05:01 435.800 - 435.900 CW/SSB
ISS 21 Oct 16:12:28 16:14:50 18° 336° (NNW) 16:17:12 145.800 FM
Uribyol 2 21 Oct 16:19:14 16:21:41 13° 269° (W) 16:24:09 436.500 FM
Gurwin Techsat 1B 21 Oct 16:20:09 16:24:36 27° 265° (W) 16:29:06 435.225 FM
JAS-2 21 Oct 16:23:13 16:24:05 10° 53° (NE) 16:24:57 435.800 - 435.900 CW/SSB, 435.910 FM
ITAMSAT 1 21 Oct 16:24:36 16:26:47 13° 270° (W) 16:28:59 435.822 SSB
Uosat F 21 Oct 16:31:13 16:35:55 42° 71° (ENE) 16:40:39 435.120 FM
TMSAT-1 21 Oct 16:33:47 16:38:16 28° 264° (W) 16:42:47 436.925 FM
KITSAT 1 21 Oct 16:41:43 16:45:18 13° 332° (NNW) 16:48:53 435.175 FM
UOSAT-12 21 Oct 16:50:22 16:54:46 43° 306° (NW) 16:59:17 437.025 FM, 437.400 FM
Saudisat 1A 21 Oct 17:08:44 17:12:12 22° 48° (NE) 17:15:39 436.775 MHz
AO-7 21 Oct 17:24:27 17:32:31 56° 257° (WSW) 17:40:39 29.400 - 29.500 MHz
OPAL 21 Oct 18:01:36 18:05:56 30° 99° (E) 18:10:14 ?
JAS-2 21 Oct 18:02:03 18:07:42 70° 73° (ENE) 18:14:08 435.800 - 435.900 CW/SSB, 435.910 FM
Uosat F 21 Oct 18:11:12 18:14:51 20° 266° (W) 18:18:32 435.120 FM
Hamsat 21 Oct 18:29:32 18:33:46 89° 79° (E) 18:37:59 145.90 MHz
Saudisat 1A 21 Oct 18:47:46 18:51:54 40° 245° (WSW) 18:56:01 436.775 MHz
